Home > Weather > Denver > Past weeks

Flag for USA Past Weather in Denver, Colorado, USA — Yesterday and Last 2 Weeks

Now
45 °F

Overcast.


Feels Like: 41 °F
Forecast: 46 / 58 °F
Wind: 7 mph from Southwest

Location: Buckley Air Force Base

Current Time: May 27, 2016 at 12:41:58 AM

Latest Report: May 26, 2016 at 11:58 PM


Visibility: 10 mi

Pressure: 29.76 "Hg (24.50 "Hg at 1593m altitude)

Humidity: 100%

Dew Point: 45 °F

Location of DenverLocation

Past Weather in Denver — Graph

°F

Denver Temperature Yesterday

Maximum temperature yesterday: 66 °F (at 11:58 AM)
Minimum temperature yesterday: 44 °F (at 3:58 AM)
Average temperature yesterday: 50 °F

High & Low Weather Summary for the Past Weeks

 TemperatureHumidityPressure
High82 °F (May 21, 3:58 PM)100% (May 15, 11:58 PM)30.33 "Hg (May 15, 11:58 PM)
Low36 °F (May 12, 5:58 AM)15% (May 21, 6:58 PM)29.49 "Hg (May 22, 3:58 PM)
Average54 °F65%29.91 "Hg
* Reported May 11 10:58 PM — May 26 10:58 PM, Denver, Weather by CustomWeather, © 2016

Note: Actual official high and low records may vary slightly from our data, if they occured in-between our weather recording intervals... More about our weather records

Advertising

Denver Weather History for the Previous 24 Hours

Scroll right to see more
 ConditionsComfort  
Time TempWeatherWind HumidityBarometerVisibility
10:58 PM
Thu, May 26
45 °FOvercast.6 mph100%29.78 "Hg10 mi
9:58 PM45 °FLight rain. Overcast.6 mph100%29.80 "Hg10 mi
8:58 PM45 °FLight rain. More clouds than sun.5 mph99%29.83 "Hg10 mi
7:58 PM46 °FLight rain. More clouds than sun.3 mph99%29.83 "Hg10 mi
6:58 PM46 °FLight rain. Mostly cloudy.No wind99%29.87 "Hg10 mi
5:58 PM46 °FLight rain. Mostly cloudy.6 mph99%29.85 "Hg10 mi
4:58 PM47 °FLight rain. Mostly cloudy.1 mph89%29.86 "Hg10 mi
3:58 PM47 °FLight rain. Mostly cloudy.10 mph91%29.84 "Hg5 mi
2:58 PM47 °FThunderstorms. Fog.9 mph92%29.86 "Hg3 mi
1:58 PM53 °FThunderstorms. Overcast.12 mph64%29.77 "Hg10 mi
12:58 PM64 °FBroken clouds.12 mph55%29.76 "Hg10 mi
11:58 AM66 °FPartly sunny.6 mph47%29.77 "Hg10 mi
10:58 AM63 °FBroken clouds.6 mph50%29.80 "Hg10 mi
9:58 AM60 °FBroken clouds.8 mph49%29.83 "Hg10 mi
8:58 AM56 °FPartly sunny.3 mph64%29.85 "Hg10 mi
7:58 AM53 °FPartly sunny.5 mph71%29.86 "Hg10 mi
6:58 AM49 °FBroken clouds.5 mph85%29.86 "Hg10 mi
5:58 AM46 °FPartly cloudy.5 mph91%29.87 "Hg10 mi
4:58 AM46 °FPartly cloudy.6 mph92%29.87 "Hg10 mi
3:58 AM44 °FPartly cloudy.6 mph89%29.87 "Hg10 mi
2:58 AM45 °FPassing clouds.5 mph89%29.88 "Hg10 mi
1:58 AM46 °FPassing clouds.No wind86%29.88 "Hg10 mi
12:58 AM47 °FPartly cloudy.3 mph83%29.88 "Hg10 mi
Weather by CustomWeather, © 2016

See weather overviewHow to use our weather pages